Location: Bothwell
(42.3833°S, 147.0000°E)
Time: 00:56:37
(UTC+10:00)

AO-73 - Visible Passes

Search period start: 01 October 2022 23:00
Search period end: 12 October 2022 00:00
Orbit: 577 x 657 km, 97.6° (Epoch: 01 October)

Date Brightness Start Highest point End Pass type
(mag) Time Alt. Az. Time Alt. Az. Time Alt. Az.
02 Oct ? 04:15:57 59° S 04:15:57 59° S 04:19:43 10° S visible
03 Oct ? 02:55:14 14° ESE 02:56:00 14° ESE 02:58:28 10° SSE visible
03 Oct ? 04:32:20 54° SW 04:32:20 54° SW 04:36:06 10° SSW visible
04 Oct ? 03:11:36 20° ESE 03:12:13 20° ESE 03:15:35 10° SSE visible
04 Oct ? 04:48:41 40° WSW 04:48:41 40° WSW 04:52:22 10° SSW visible
05 Oct ? 03:27:58 28° E 03:28:29 29° ESE 03:32:26 10° S visible
05 Oct ? 05:05:03 28° W 05:05:03 28° W 05:08:30 10° SW visible
06 Oct ? 03:44:19 40° E 03:44:47 41° ESE 03:49:06 10° S visible
06 Oct ? 05:21:25 20° W 05:21:25 20° W 05:24:24 10° SW visible
07 Oct ? 04:00:40 58° ENE 04:01:07 61° ESE 04:05:38 10° S visible
07 Oct ? 05:37:45 14° W 05:37:45 14° W 05:39:54 10° WSW visible
08 Oct ? 02:41:10 10° ESE 02:42:08 11° ESE 02:43:06 10° SE visible
08 Oct ? 04:17:01 73° NNE 04:17:28 90° NW 04:22:04 10° SSW visible
09 Oct ? 02:56:16 12° E 02:58:17 15° ESE 03:00:55 10° SSE visible
09 Oct ? 04:33:21 56° NW 04:33:51 61° W 04:38:23 10° SSW visible
10 Oct ? 03:12:36 17° E 03:14:29 22° ESE 03:17:56 10° SSE visible
10 Oct ? 04:49:41 38° WNW 04:50:16 40° W 04:54:35 10° SSW visible
11 Oct ? 03:28:56 23° ENE 03:30:42 30° ESE 03:34:41 10° S visible
11 Oct ? 05:06:01 26° WNW 05:06:43 27° W 05:10:37 10° SW visible
